TimeCDT,TemperatureF,Dew PointF,Humidity,Sea Level PressureIn,VisibilityMPH,Wind Direction,Wind SpeedMPH,Gust SpeedMPH,PrecipitationIn,Events,Conditions,WindDirDegrees,DateUTC
12:15 AM,78.8,71.6,78,30.00,10.0,SSE,15.0,20.7,N/A,,Mostly Cloudy,160,2013-10-04 05:15:00
12:35 AM,77.0,71.6,83,29.99,10.0,South,8.1,-,N/A,,Mostly Cloudy,170,2013-10-04 05:35:00
12:55 AM,77.0,69.8,78,29.98,10.0,South,5.8,-,N/A,,Scattered Clouds,180,2013-10-04 05:55:00
1:15 AM,77.0,69.8,78,29.98,10.0,South,6.9,-,N/A,,Overcast,180,2013-10-04 06:15:00
1:35 AM,77.0,69.8,78,29.98,10.0,South,5.8,-,N/A,,Mostly Cloudy,180,2013-10-04 06:35:00
1:55 AM,77.0,69.8,78,29.97,10.0,SSE,4.6,-,N/A,,Clear,160,2013-10-04 06:55:00
2:15 AM,77.0,68.0,74,29.96,10.0,SE,3.5,-,N/A,,Clear,130,2013-10-04 07:15:00
2:35 AM,77.0,66.2,69,29.96,10.0,Calm,Calm,-,N/A,,Clear,0,2013-10-04 07:35:00
2:55 AM,75.2,66.2,73,29.96,10.0,South,3.5,-,N/A,,Clear,190,2013-10-04 07:55:00
3:15 AM,75.2,68.0,78,29.96,10.0,Calm,Calm,-,N/A,,Clear,0,2013-10-04 08:15:00
3:35 AM,75.2,68.0,78,29.96,10.0,ESE,4.6,-,N/A,,Clear,120,2013-10-04 08:35:00
3:55 AM,75.2,68.0,78,29.96,10.0,ESE,5.8,-,N/A,,Clear,120,2013-10-04 08:55:00
4:15 AM,75.2,68.0,78,29.96,10.0,East,4.6,-,N/A,,Clear,100,2013-10-04 09:15:00
4:35 AM,75.2,69.8,83,29.97,10.0,East,8.1,-,N/A,,Clear,80,2013-10-04 09:35:00
4:55 AM,75.2,69.8,83,29.97,10.0,East,5.8,-,N/A,,Clear,80,2013-10-04 09:55:00
5:15 AM,77.0,69.8,78,29.98,10.0,East,5.8,-,N/A,,Clear,80,2013-10-04 10:15:00
5:35 AM,77.0,69.8,78,29.98,10.0,ENE,5.8,-,N/A,,Clear,70,2013-10-04 10:35:00
5:55 AM,77.0,69.8,78,29.99,10.0,East,3.5,-,N/A,,Clear,100,2013-10-04 10:55:00
6:15 AM,77.0,69.8,78,29.99,10.0,SE,3.5,-,N/A,,Clear,130,2013-10-04 11:15:00
6:35 AM,77.0,69.8,78,30.00,10.0,Calm,Calm,-,N/A,,Clear,0,2013-10-04 11:35:00
6:55 AM,77.0,69.8,78,30.00,10.0,East,3.5,-,N/A,,Clear,100,2013-10-04 11:55:00
7:15 AM,77.0,69.8,78,30.01,10.0,SE,5.8,-,N/A,,Clear,140,2013-10-04 12:15:00
7:35 AM,77.0,69.8,78,30.01,10.0,SE,5.8,-,N/A,,Clear,140,2013-10-04 12:35:00
7:55 AM,78.8,69.8,74,30.01,10.0,SE,5.8,-,N/A,,Clear,140,2013-10-04 12:55:00
8:15 AM,78.8,71.6,78,30.01,10.0,SSE,4.6,-,N/A,,Clear,150,2013-10-04 13:15:00
8:35 AM,78.8,71.6,78,30.02,10.0,East,6.9,-,N/A,,Clear,80,2013-10-04 13:35:00
8:55 AM,80.6,71.6,74,30.02,10.0,SE,3.5,-,N/A,,Clear,140,2013-10-04 13:55:00
9:15 AM,80.6,71.6,74,30.03,10.0,SE,4.6,-,N/A,,Clear,140,2013-10-04 14:15:00
9:35 AM,82.4,71.6,70,30.03,10.0,Calm,Calm,-,N/A,,Clear,0,2013-10-04 14:35:00
9:55 AM,84.2,71.6,66,30.03,10.0,SE,6.9,-,N/A,,Clear,130,2013-10-04 14:55:00
10:15 AM,84.2,71.6,66,30.03,10.0,SE,4.6,-,N/A,,Clear,130,2013-10-04 15:15:00
10:35 AM,86.0,71.6,62,30.04,10.0,SSE,6.9,-,N/A,,Partly Cloudy,160,2013-10-04 15:35:00
10:55 AM,86.0,69.8,58,30.04,10.0,SSE,5.8,-,N/A,,Mostly Cloudy,150,2013-10-04 15:55:00
11:15 AM,87.8,69.8,55,30.03,10.0,SSE,6.9,-,N/A,,Mostly Cloudy,150,2013-10-04 16:15:00
11:35 AM,89.6,69.8,52,30.04,10.0,SSE,11.5,17.3,N/A,,Mostly Cloudy,160,2013-10-04 16:35:00
11:55 AM,87.8,69.8,55,30.04,10.0,SE,8.1,-,N/A,,Scattered Clouds,140,2013-10-04 16:55:00
12:15 PM,87.8,69.8,55,30.03,10.0,ESE,8.1,18.4,N/A,,Mostly Cloudy,110,2013-10-04 17:15:00
12:35 PM,89.6,69.8,52,30.03,10.0,SSE,8.1,16.1,N/A,,Mostly Cloudy,150,2013-10-04 17:35:00
12:55 PM,89.6,71.6,55,30.02,10.0,SSE,6.9,17.3,N/A,,Overcast,150,2013-10-04 17:55:00
1:15 PM,89.6,71.6,55,30.01,10.0,SSE,9.2,-,N/A,,Overcast,150,2013-10-04 18:15:00
1:35 PM,80.6,71.6,74,30.02,3.0,SSE,12.7,31.1,0.06,,Overcast,160,2013-10-04 18:35:00
1:55 PM,78.8,73.4,83,30.02,10.0,SSE,8.1,19.6,0.06,,Overcast,160,2013-10-04 18:55:00
2:15 PM,80.6,71.6,74,30.02,10.0,SSE,10.4,18.4,N/A,,Overcast,150,2013-10-04 19:15:00
2:35 PM,80.6,71.6,74,30.01,10.0,SSE,8.1,-,0.01,,Overcast,150,2013-10-04 19:35:00
2:55 PM,80.6,71.6,74,30.01,8.0,SSE,8.1,17.3,0.01,,Overcast,150,2013-10-04 19:55:00
3:15 PM,82.4,71.6,70,30.01,10.0,SSE,6.9,-,N/A,,Overcast,150,2013-10-04 20:15:00
3:35 PM,78.8,69.8,74,30.00,10.0,SE,5.8,-,N/A,,Mostly Cloudy,140,2013-10-04 20:35:00
3:55 PM,82.4,71.6,70,30.00,10.0,SSE,5.8,-,N/A,,Mostly Cloudy,150,2013-10-04 20:55:00
4:15 PM,84.2,71.6,66,29.99,10.0,SSE,9.2,-,N/A,,Scattered Clouds,150,2013-10-04 21:15:00
4:35 PM,84.2,69.8,62,29.99,10.0,SE,4.6,-,N/A,,Partly Cloudy,140,2013-10-04 21:35:00
4:55 PM,84.2,69.8,62,29.99,10.0,SSE,4.6,-,N/A,,Clear,160,2013-10-04 21:55:00
5:15 PM,84.2,69.8,62,29.99,10.0,SSE,5.8,-,N/A,,Clear,160,2013-10-04 22:15:00
5:35 PM,82.4,69.8,66,29.99,10.0,SE,5.8,-,N/A,,Clear,130,2013-10-04 22:35:00
5:55 PM,82.4,69.8,66,29.99,10.0,SSE,5.8,-,N/A,,Clear,150,2013-10-04 22:55:00
6:15 PM,82.4,69.8,66,29.99,10.0,SE,8.1,-,N/A,,Clear,140,2013-10-04 23:15:00
6:35 PM,82.4,69.8,66,29.99,10.0,Calm,Calm,-,N/A,,Clear,0,2013-10-04 23:35:00
6:55 PM,80.6,69.8,70,30.00,10.0,Calm,Calm,-,N/A,,Clear,0,2013-10-04 23:55:00
7:15 PM,80.6,69.8,70,30.00,10.0,ESE,3.5,-,N/A,,Clear,110,2013-10-05 00:15:00
7:35 PM,80.6,69.8,70,30.00,10.0,Calm,Calm,-,N/A,,Clear,0,2013-10-05 00:35:00
7:55 PM,80.6,69.8,70,30.00,10.0,ENE,5.8,-,N/A,,Clear,70,2013-10-05 00:55:00
8:15 PM,80.6,69.8,70,30.01,10.0,East,5.8,-,N/A,,Clear,80,2013-10-05 01:15:00
8:35 PM,80.6,69.8,70,30.01,10.0,East,5.8,-,N/A,,Clear,80,2013-10-05 01:35:00
8:55 PM,80.6,69.8,70,30.02,10.0,East,5.8,-,N/A,,Clear,100,2013-10-05 01:55:00
9:15 PM,80.6,69.8,70,30.02,10.0,Calm,Calm,-,N/A,,Clear,0,2013-10-05 02:15:00
9:35 PM,80.6,69.8,70,30.02,10.0,ENE,3.5,-,N/A,,Clear,60,2013-10-05 02:35:00
9:55 PM,80.6,69.8,70,30.02,10.0,ESE,3.5,-,N/A,,Clear,110,2013-10-05 02:55:00
10:15 PM,80.6,69.8,70,30.02,10.0,SE,3.5,-,N/A,,Clear,130,2013-10-05 03:15:00
10:35 PM,78.8,71.6,78,30.02,10.0,ESE,4.6,-,N/A,,Clear,120,2013-10-05 03:35:00
10:55 PM,80.6,71.6,74,30.02,10.0,SSE,4.6,-,N/A,,Clear,150,2013-10-05 03:55:00
11:15 PM,78.8,71.6,78,30.02,10.0,East,5.8,-,N/A,,Clear,90,2013-10-05 04:15:00
11:35 PM,78.8,71.6,78,30.01,10.0,SE,5.8,-,N/A,,Clear,130,2013-10-05 04:35:00
11:55 PM,78.8,71.6,78,30.00,10.0,Calm,Calm,-,N/A,,Clear,0,2013-10-05 04:55:00